Zurück zum Katalog

T2V

AktivWissenschaftSSO
NORAD 58016·PAYLOAD·🇹🇭 Thailand

Gestartet Oct 9, 2023 von Guiana Space Centre

Loading…

Nächste Überflüge (nächste 24 Stunden)

TLE

AktuellSource: Space-Track

Epoche: Sep 14, 2026, 12:36 UTC

1 58016U 23155A   26257.52524788  .00000544  00000-0  75670-4 0  9991
2 58016  97.9125 327.1430 0001522  87.3488 272.7899 14.81722048158659

Verfolge T2V in Echtzeit mit AllMySat

Download on the App Store